Date String (YYYY-MM-DD hh:mm:ss) UTC,Instrument flags,Ambient pressure (hPa),Sample flow (lpm),Bypass flow (lpm),Sample temperature (°C),Ambient temperature (°C),ASC tube jacket temperature (°C),LED temperature (°C),Box temperature (°C),Sample RH (%),Span deviation,Mass concentration (μg/m³),Mass concentration (μg/m³),Mass concentration (μg/m³)
DateTimeUTC,F1_M11,P_M11,Q1_M11,Q2_M11,T1_M11,T2_M11,T3_M11,T4_M11,T5_M11,U1_M11,ZSPAN_M11,X0_M11,X2_M11,X1_M11
2022-02-17 11:00:00,,0828.2,4.99,0.00,22.4,21.6,00.0,31.5,24.1,08.8,0000.0,0004.81,0003.82,0003.68
2022-02-17 11:01:00,,0828.2,5.00,0.00,22.4,21.5,00.0,31.5,24.1,08.8,0000.0,0004.80,0003.84,0003.70
2022-02-17 11:02:00,,0828.2,5.01,0.00,22.4,21.5,00.0,31.4,24.1,08.8,0000.0,0004.84,0003.86,0003.71
2022-02-17 11:03:00,,0828.0,4.99,0.00,22.4,21.5,00.0,31.4,24.0,08.9,0000.0,0004.80,0003.85,0003.72
2022-02-17 11:04:00,,0828.0,4.99,0.00,22.4,21.6,00.0,31.4,24.0,08.8,0000.0,0004.67,0003.83,0003.72
2022-02-17 11:05:00,,0828.2,5.00,0.00,22.4,22.3,00.0,31.4,24.2,08.8,0000.0,0004.66,0003.83,0003.72
2022-02-17 11:06:00,,0828.1,4.99,0.00,22.5,23.0,00.0,31.5,24.4,08.7,0000.0,0004.73,0003.84,0003.72
2022-02-17 11:07:00,,0828.1,5.01,0.00,22.6,23.1,00.0,31.5,24.6,08.7,0000.0,0004.74,0003.83,0003.70
2022-02-17 11:08:00,,0828.1,5.01,0.00,22.7,22.9,00.0,31.5,24.6,08.6,0000.0,0004.61,0003.80,0003.70
2022-02-17 11:09:00,,0828.1,5.00,0.00,22.6,22.6,00.0,31.5,24.5,08.6,0000.0,0004.57,0003.79,0003.68
2022-02-17 11:10:00,,0828.1,5.00,0.00,22.6,22.4,00.0,31.5,24.4,08.6,0000.0,0004.39,0003.77,0003.68
2022-02-17 11:11:00,,0828.1,5.00,0.00,22.6,22.2,00.0,31.5,24.3,08.7,0000.0,0004.55,0003.79,0003.68
2022-02-17 11:12:00,,0828.1,4.99,0.00,22.6,22.0,00.0,31.5,24.3,08.7,0000.0,0004.60,0003.80,0003.69
2022-02-17 11:13:00,,0828.1,5.00,0.00,22.5,21.9,00.0,31.5,24.2,08.7,0000.0,0004.68,0003.82,0003.70
2022-02-17 11:14:00,,0828.2,5.01,0.00,22.5,21.8,00.0,31.5,24.1,08.7,0000.0,0004.70,0003.83,0003.70
2022-02-17 11:15:00,,0828.1,4.99,0.00,22.4,21.7,00.0,31.5,24.1,08.6,0000.0,0004.69,0003.83,0003.70
2022-02-17 11:16:00,,0828.2,5.01,0.00,22.4,21.6,00.0,31.4,24.0,08.6,0000.0,0004.70,0003.82,0003.69
2022-02-17 11:17:00,,0828.2,5.00,0.00,22.3,21.5,00.0,31.4,24.0,08.6,0000.0,0004.69,0003.80,0003.67
2022-02-17 11:18:00,,0828.1,4.99,0.00,22.3,21.4,00.0,31.4,23.9,08.6,0000.0,0004.66,0003.78,0003.65
2022-02-17 11:19:00,,0828.1,5.01,0.00,22.2,21.4,00.0,31.4,23.8,08.6,0000.0,0004.68,0003.74,0003.62
2022-02-17 11:20:00,,0828.2,5.00,0.00,22.3,21.8,00.0,31.4,24.0,08.5,0000.0,0004.67,0003.73,0003.60
2022-02-17 11:21:00,,0828.2,4.99,0.00,22.4,22.5,00.0,31.4,24.2,08.5,0000.0,0004.65,0003.71,0003.58
2022-02-17 11:22:00,,0828.1,5.01,0.00,22.5,23.0,00.0,31.5,24.4,08.4,0000.0,0004.45,0003.67,0003.55
2022-02-17 11:23:00,,0828.1,4.99,0.00,22.6,22.8,00.0,31.5,24.4,08.4,0000.0,0004.48,0003.67,0003.54
2022-02-17 11:24:00,,0828.2,5.00,0.00,22.5,22.6,00.0,31.5,24.3,08.4,0000.0,0004.46,0003.67,0003.55
2022-02-17 11:25:00,,0828.1,5.00,0.00,22.5,22.3,00.0,31.5,24.2,08.3,0000.0,0004.48,0003.67,0003.56
2022-02-17 11:26:00,,0828.0,5.01,0.00,22.4,22.1,00.0,31.4,24.1,08.3,0000.0,0004.51,0003.68,0003.55
2022-02-17 11:27:00,,0828.1,4.99,0.00,22.4,21.9,00.0,31.4,24.1,08.3,0000.0,0004.49,0003.67,0003.54
2022-02-17 11:28:00,,0828.1,5.00,0.00,22.3,21.8,00.0,31.4,24.0,08.3,0000.0,0004.43,0003.66,0003.54
2022-02-17 11:29:00,,0828.2,5.01,0.00,22.3,21.6,00.0,31.4,23.9,08.3,0000.0,0004.52,0003.69,0003.56
2022-02-17 11:30:00,,0828.1,4.98,0.00,22.3,21.5,00.0,31.4,23.9,08.4,0000.0,0004.61,0003.72,0003.58
2022-02-17 11:31:00,,0828.2,5.01,0.00,22.2,21.4,00.0,31.4,23.8,08.4,0000.0,0004.77,0003.74,0003.59
2022-02-17 11:32:00,,0828.1,5.00,0.00,22.2,21.4,00.0,31.3,23.8,08.4,0000.0,0004.79,0003.75,0003.60
2022-02-17 11:33:00,,0828.1,4.99,0.00,22.1,21.3,00.0,31.3,23.7,08.4,0000.0,0004.83,0003.77,0003.62
2022-02-17 11:34:00,,0828.0,5.02,0.00,22.2,21.8,00.0,31.3,23.9,08.4,0000.0,0004.81,0003.77,0003.62
2022-02-17 11:35:00,,0828.1,5.00,0.00,22.3,22.5,00.0,31.3,24.1,08.3,0000.0,0004.80,0003.74,0003.60
2022-02-17 11:36:00,,0828.0,4.99,0.00,22.4,22.9,00.0,31.4,24.3,08.3,0000.0,0004.83,0003.74,0003.59
2022-02-17 11:37:00,,0828.1,5.01,0.00,22.5,22.7,00.0,31.4,24.3,08.2,0000.0,0004.80,0003.73,0003.59
2022-02-17 11:38:00,,0828.0,5.00,0.00,22.4,22.5,00.0,31.4,24.2,08.2,0000.0,0004.76,0003.73,0003.60
2022-02-17 11:39:00,,0828.1,5.00,0.00,22.4,22.2,00.0,31.4,24.1,08.2,0000.0,0004.83,0003.75,0003.61
2022-02-17 11:40:00,,0828.1,4.99,0.00,22.3,22.0,00.0,31.4,24.0,08.3,0000.0,0004.79,0003.75,0003.62
2022-02-17 11:41:00,,0828.1,5.00,0.00,22.3,21.8,00.0,31.3,24.0,08.3,0000.0,0004.72,0003.76,0003.63
2022-02-17 11:42:00,,0828.1,5.01,0.00,22.3,21.6,00.0,31.3,23.9,08.3,0000.0,0004.60,0003.77,0003.64
2022-02-17 11:43:00,,0828.1,5.01,0.00,22.2,21.5,00.0,31.3,23.8,08.3,0000.0,0004.59,0003.78,0003.65
2022-02-17 11:44:00,,0828.1,4.99,0.00,22.2,21.4,00.0,31.3,23.8,08.3,0000.0,0004.61,0003.79,0003.65
2022-02-17 11:45:00,,0828.1,4.99,0.00,22.1,21.3,00.0,31.3,23.7,08.3,0000.0,0004.54,0003.77,0003.65
2022-02-17 11:46:00,,0828.1,5.01,0.00,22.1,21.3,00.0,31.3,23.7,08.2,0000.0,0004.47,0003.77,0003.65
2022-02-17 11:47:00,,0828.1,4.99,0.00,22.2,22.0,00.0,31.3,23.9,08.2,0000.0,0004.42,0003.76,0003.64
2022-02-17 11:48:00,,0828.2,5.00,0.00,22.3,22.7,00.0,31.3,24.1,08.1,0000.0,0004.50,0003.78,0003.64
2022-02-17 11:49:00,,0828.2,5.00,0.00,22.4,23.2,00.0,31.3,24.3,08.0,0000.0,0004.50,0003.78,0003.64
2022-02-17 11:50:00,,0828.1,5.01,0.00,22.5,23.1,00.0,31.4,24.4,08.0,0000.0,0004.43,0003.77,0003.64
2022-02-17 11:51:00,,0828.2,5.00,0.00,22.5,22.7,00.0,31.4,24.3,08.0,0000.0,0004.49,0003.77,0003.63
2022-02-17 11:52:00,,0828.1,5.00,0.00,22.4,22.4,00.0,31.4,24.2,08.0,0000.0,0004.47,0003.77,0003.63
2022-02-17 11:53:00,,0828.5,5.00,0.00,22.4,22.2,00.0,31.4,24.1,08.0,0000.0,0004.47,0003.76,0003.62
2022-02-17 11:54:00,,0828.4,5.01,0.00,22.3,21.9,00.0,31.3,24.0,08.0,0000.0,0004.55,0003.74,0003.60
2022-02-17 11:55:00,,0828.2,5.02,0.00,22.3,21.7,00.0,31.3,23.9,08.0,0000.0,0004.48,0003.72,0003.58
2022-02-17 11:56:00,,0828.3,4.99,0.00,22.2,21.6,00.0,31.3,23.8,08.0,0000.0,0004.51,0003.72,0003.56
2022-02-17 11:57:00,,0828.5,5.00,0.00,22.2,21.4,00.0,31.3,23.8,08.0,0000.0,0004.59,0003.72,0003.55
2022-02-17 11:58:00,,0828.2,5.01,0.00,22.1,21.3,00.0,31.3,23.7,08.0,0000.0,0004.59,0003.70,0003.53
2022-02-17 11:59:00,,0828.1,4.99,0.00,22.1,21.3,00.0,31.2,23.6,08.0,0000.0,0004.59,0003.67,0003.51
